Regional Weather Roundup
Issued by NWS

Home | Current Version | Previous Version | Text Only | Print | Product List | Glossary On
Versions: 1 2 3 4 5 6 7 8 9 10 11 12 13 14 15 16 17 18 19 20 21 22 23 24 25 26 27 28 29 30 31 32 33 34 35 36 37 38 39 40 41 42 43 44 45 46 47 48 49 50
000
ASUS43 KMKX 272321
RWRWI

WISCONSIN REGIONAL WEATHER ROUNDUP
NATIONAL WEATHER SERVICE MILWAUKEE/SULLIVAN WI
600 PM CDT SAT MAY 27 2017

NOTE: "FAIR" INDICATES FEW OR NO CLOUDS BELOW 12,000 FEET WITH NO
SIGNIFICANT WEATHER AND/OR OBSTRUCTIONS TO VISIBILITY.

WIZ001-002-006>008-014>016-023>028-280000-
NORTHWEST WISCONSIN

CITY           SKY/WX    TMP DP  RH WIND       PRES   REMARKS
SUPERIOR ARPT  NOT AVBL
ASHLAND        CLOUDY    72  42  34 SW6       29.79F
HAYWARD        CLOUDY    70  42  36 W5        29.82F
SIREN          MOSUNNY   71  42  35 CALM      29.83S
CUMBERLAND     MOSUNNY   64  43  45 W5        29.84F
RICE LAKE      MOSUNNY   69  40  35 W7        29.86S
CHETEK         MOSUNNY   68  45  42 W3        29.84S
LADYSMITH      PTSUNNY   69  48  46 W5        29.85R
EAU CLAIRE     CLOUDY    68  46  45 W8        29.85S
MENOMONIE      PTSUNNY   68  49  50 SW8       29.86R
NEW RICHMOND   CLOUDY    65  50  58 SW9       29.86S
OSCEOLA        PTSUNNY   73  40  30 W3        29.87S
$$

WIZ003>005-009-010-017-018-280000-
NORTH CENTRAL WISCONSIN

CITY           SKY/WX    TMP DP  RH WIND       PRES   REMARKS
MANITOWISH WTR CLOUDY    67  46  47 W7        29.82F
ARBOR VITAE    PTSUNNY   69  48  47 NW3       29.81F
WOODRUFF       PTSUNNY   69  48  47 NW3       29.81F
RHINELANDER    MOSUNNY   70  48  45 W7        29.83F
EAGLE RIVER    CLOUDY    68  40  36 W6        29.81F
LAND O LAKES   CLOUDY    70  41  35 NW6       29.82F
PHILLIPS       MOSUNNY   67  47  48 W3        29.82F
TOMAHAWK       CLOUDY    66  45  46 W3        29.83S
MEDFORD        CLOUDY    66  47  49 W5        29.85R
MERRILL        CLOUDY    68  49  51 W6        29.84S
$$

WIZ029-030-035-036-043>047-280000-
CENTRAL WISCONSIN

CITY           SKY/WX    TMP DP  RH WIND       PRES   REMARKS
WAUSAU         PTSUNNY   68  49  50 W8        29.83S
MOSINEE        PTSUNNY   68  50  52 NW7       29.86R
MARSHFIELD     CLOUDY    67  49  52 W5        29.86R
STEVENS POINT  CLOUDY    70  50  49 W6        29.86R
WAUPACA        MOSUNNY   77  51  39 W6        29.84R
WAUTOMA        PTSUNNY   75  52  44 W7        29.84R
WISC RAPIDS    MOSUNNY   73  50  44 NW5       29.87R
CAMP DOUGLAS   CLOUDY    70  57  63 W6        29.85R
$$

WIZ011>013-019>022-031-037>040-048>050-280000-
NORTHEAST WISCONSIN

CITY           SKY/WX    TMP DP  RH WIND       PRES   REMARKS
ANTIGO         PTSUNNY   68  50  52 W9        29.84R
SHAWANO        CLOUDY    76  49  37 W8        29.80F
OCONTO         MOSUNNY   73  57  56 S7        29.79F
STURGEON BAY   PTSUNNY   69  53  56 S10       29.82F
GREEN BAY      PTSUNNY   75  59  57 S7        29.80F
MANITOWOC      MOSUNNY   62  51  67 SE8       29.84F
APPLETON       PTSUNNY   73  54  49 SW9       29.81F
CLINTONVILLE   MOSUNNY   73  48  40 NW8       29.81S
OSHKOSH        CLOUDY    75  57  53 SW7       29.86R
$$

WIZ032>034-041-042-053>061-280000-
SOUTHWEST WISCONSIN

CITY           SKY/WX    TMP DP  RH WIND       PRES   REMARKS
LA CROSSE      CLOUDY    69  50  50 NW8       29.86R
SPARTA         CLOUDY    70  51  50 NW5       29.88R
VIROQUA        CLOUDY    69  52  53 W3        29.88F
BOSCOBEL       CLOUDY    73  58  59 CALM      29.86R
PRAIRIE DU CHI CLOUDY    71  55  55 N3        29.86R
PLATTEVILLE    CLOUDY    72  62  71 CALM      29.87R
$$

WIZ056-057-062-063-064-067-068-280000-
SOUTH CENTRAL WISCONSIN

CITY           SKY/WX    TMP DP  RH WIND       PRES   REMARKS
REEDSBURG      MOSUNNY   72  53  52 NW3       29.85F
BARABOO/DELLS  MOSUNNY   73  54  52 CALM      29.85F
LONE ROCK      MOSUNNY   74  56  53 CALM      29.85F
MINERAL POINT  CLOUDY    72  55  56 CALM      29.88R
MADISON        PTSUNNY   75  58  55 NW3       29.84R
MIDDLETON      SUNNY     75  57  52 CALM      29.86S
WATERTOWN      PTSUNNY   74  59  58 CALM      29.84F
MONROE         PTSUNNY   72  59  64 CALM      29.86R
JANESVILLE     PTSUNNY   75  57  53 CALM      29.85R
$$

WIZ051-052-058>065-066-070>072-280000-
SOUTHEAST WISCONSIN

CITY           SKY/WX    TMP DP  RH WIND       PRES   REMARKS
MILWAUKEE      MOSUNNY   69  55  60 SE10      29.87R
WAUKESHA       PTSUNNY   72  55  56 W3        29.89R
MILWAUKEE/TIMM MOSUNNY   70  50  49 SE6       29.89R
RACINE         SUNNY     68  51  54 S7        29.89S
KENOSHA        SUNNY     69  54  58 SE10      29.86F
FOND DU LAC    MOSUNNY   76  54  46 SW9       29.85R
SHEBOYGAN      CLOUDY    67  55  65 S9        29.86R
WEST BEND      CLOUDY    68  54  60 SE8       29.87R
JUNEAU         MOSUNNY   73  58  59 CALM      29.85S
$$

LSZ147-162-280000-
LAKE SUPERIOR

STATION/POSITION TIME  TEMP    WIND        PRES    WAVE
                       AIR SEA DIR/SP/G            HT/PER
                 (UTC) (F)     (DEG/KT/KT) (MB)    (FT/S)
W MID LAKE BUOY  2250   48 38  200/  6/  8 1009.4F   0
DEVILS ISLAND    2300   69     220/  9/ 11 1008.0F
SAXON HARBOR     2240   65      60/  7/  7 1009.1F
$$

LMZ867-665-643>646-280000-
LAKE MICHIGAN

STATION/POSITION TIME  TEMP    WIND        PRES    WAVE
                       AIR SEA DIR/SP/G            HT/PER
                 (UTC) (F)     (DEG/KT/KT) (MB)    (FT/S)
CHAMBERS ISLAND  2240   70     150/  3/ 10 1008.8F
N MID LAKE BUOY  2250   47 42  160/  6/  8 1011.3F   1
NORTHPORT PIER   2240   62     150/  9/ 12 1009.5F
KEWAUNEE LAKESHO 2254   54     180/ 10/ 12 1009.8F
SHEBOYGAN LAKESH 2300   61     190/ 18/ 19 1011.2R
PORT WASHINGTON  2300   61     180/  6/ 16 1012.9
ATWATER BUOY     2209   54     170/  8/ 10 1011.4F
MILWAUKEE LAKESH 2300   58     130/ 12/ 12   N/A
S MID LAKE BUOY  2250   55 52  330/  2/  4 1011.8S   0
KENOSHA   LAKESH 2300   60     170/  4/  8 1011.2
$$

TC  - TEMPERATURE IN CELSIUS
VSB - VISIBILITY IN STATUTE MILES
WCI - WIND CHILL INDEX
HX  - HEAT INDEX





USA.gov is the U.S. government's official web portal to all federal, state and local government web resources and services.